Flag for United Kingdom Weather past 2 weeks in Saint Helier, Jersey, United Kingdom

Now
64 °F

Sunny.


Feels Like: 64 °F
Forecast: 63 / 79 °F
Wind: 7 mph from Northeast

Location: Guernsey Airport

Current Time: Jul 23, 2014 at 8:31:46 AM

Latest Report: Jul 23, 2014 at 6:50 AM


Visibility: 10 mi

Pressure: 30.12 "Hg

Humidity: 83%

Dew point: 59 °F

Location of Saint HelierLocation

Historic Weather in Saint Helier — Graph

°F

Saint Helier temperature yesterday

Maximum temperature yesterday: 72 °F (at 11:20 AM)
Minimum temperature yesterday: 59 °F (at 5:50 AM)
Average temperature yesterday: 67 °F

Past Weeks' High & Low Weather Summary

 TemperatureHumidityPressure
High73 °F (Jul 17, 1:20 PM)100% (Jul 11, 6:20 AM)30.21 "Hg (Jul 11, 6:20 AM)
Low55 °F (Jul 14, 4:50 AM)65% (Jul 18, 3:20 PM)29.74 "Hg (Jul 19, 4:50 AM)
Average64 °F85%30.05 "Hg
* Reported Jul 8 6:20 AM — Jul 23 6:20 AM, Saint Helier, Weather by CustomWeather, © 2014

Note: Actual official high and low records may vary slightly from our data, if they occured in-between our weather recording intervals... More about our weather records

Advertising

Saint Helier weather history for previous 24 hours

 ConditionsComfort  
Time TempWeatherWind HumidityBarometerVisibility
6:20 AM
Jul 23
63 °FClear.6 mph83%30.12 "Hg10 mi
5:50 AM63 °FClear.6 mph83%30.12 "Hg10 mi
5:20 AM63 °FClear.3 mph77%30.12 "Hg10 mi
4:50 AM63 °FClear.5 mph83%30.12 "Hg10 mi
4:20 AM63 °FClear.3 mph83%30.12 "Hg10 mi
3:50 AM63 °FClear.3 mph83%30.12 "Hg10 mi
5:50 PM
Jul 22
70 °FSunny.8 mph78%30.18 "Hg10 mi
5:20 PM72 °FPassing clouds.9 mph73%30.18 "HgN/A
4:50 PM72 °FPassing clouds.7 mph78%30.18 "HgN/A
4:20 PM70 °FPassing clouds.7 mph83%30.18 "HgN/A
3:50 PM72 °FPassing clouds.9 mph78%30.21 "HgN/A
3:20 PM72 °FPassing clouds.7 mph78%30.21 "HgN/A
2:50 PM70 °FPassing clouds.8 mph78%30.21 "HgN/A
2:20 PM72 °FPassing clouds.7 mph73%30.21 "HgN/A
1:50 PM72 °FPassing clouds.8 mph73%30.21 "HgN/A
1:20 PM72 °FPassing clouds.7 mph73%30.21 "HgN/A
12:50 PM70 °FPassing clouds.7 mph78%30.21 "HgN/A
12:20 PM70 °FPassing clouds.6 mph78%30.21 "HgN/A
11:50 AM70 °FPassing clouds.8 mph78%30.21 "HgN/A
11:20 AM72 °FPassing clouds.6 mph73%30.21 "HgN/A
10:50 AM70 °FPassing clouds.7 mph78%30.21 "HgN/A
10:20 AM70 °FPassing clouds.7 mph73%30.21 "HgN/A
9:50 AM70 °FPassing clouds.8 mph73%30.21 "HgN/A
9:20 AM68 °FPassing clouds.7 mph83%30.21 "HgN/A
8:50 AM64 °FSunny.8 mph88%30.21 "Hg10 mi
8:20 AM64 °FSunny.7 mph88%30.21 "Hg10 mi
Weather by CustomWeather, © 2014

See weather overviewHow to use our weather pages